This demonstration page uses our WeatherBlox Daily Observations layout. Learn more.

36.17497, -115.13722

Hourly Observations for May 25, 2015

Temp ( °F °C ) Dew Point ( °F °C ) Humidity (%) Winds ( mph kmh ) Pressure ( in mb ) Visibility ( mi km ) Precip ( " mm )
12:53 am 00:53 Clear 62 16.7 52 11.1 70 70 SE 9 15 29.91 1013 10 16.0934 0 0
1:53 am 01:53 Clear 62 16.7 52 11.1 70 70 S 7 11 29.92 1013 10 16.0934 0 0
2:53 am 02:53 Clear 62 16.7 52 11.1 70 70 SSE 6 9 29.91 1013 10 16.0934 0 0
3:53 am 03:53 Clear 60 15.6 52 11.1 75 75 ESE 3 6 29.91 1013 10 16.0934 0 0
4:53 am 04:53 Clear 60 15.6 52 11.1 75 75 NE 3 6 29.91 1013 10 16.0934 0 0
5:53 am 05:53 Sunny 60 15.6 53 11.7 78 78 Calm 29.91 1013 10 16.0934 0 0
6:53 am 06:53 Sunny 63 17.2 52 11.1 68 68 SE 3 6 29.92 1013 10 16.0934 0 0
7:53 am 07:53 Sunny 64 17.8 51 10.6 63 63 SE 5 7 29.94 1014 10 16.0934 0 0
8:53 am 08:53 Sunny 67 19.4 51 10.6 57 57 SSE 5 7 29.96 1014 10 16.0934 0 0
9:53 am 09:53 Sunny 71 21.7 49 9.4 46 46 VRB 6 9 29.95 1014 10 16.0934 0 0
10:53 am 10:53 Sunny 73 22.8 49 9.4 43 43 ESE 8 13 29.94 1014 10 16.0934 0 0
11:53 am 11:53 Sunny 76 24.4 49 9.4 39 39 ESE 7 11 29.94 1014 10 16.0934 0 0
12:53 pm 12:53 Sunny 78 25.6 48 8.9 35 35 Calm 29.92 1013 10 16.0934 0 0
1:53 pm 13:53 Mostly Cloudy 81 27.2 46 7.8 29 29 N 3 6 29.89 1012 10 16.0934 0 0
2:53 pm 14:53 Mostly Sunny 81 27.2 44 6.7 27 27 VRB 5 7 29.87 1011 10 16.0934 0 0
3:53 pm 15:53 Sunny 84 28.9 43 6.1 24 24 NNW 3 6 29.84 1011 10 16.0934 0 0
4:53 pm 16:53 Sunny 85 29.4 44 6.7 24 24 E 6 9 29.82 1010 10 16.0934 0 0
5:53 pm 17:53 Sunny 84 28.9 43 6.1 24 24 SSE 9 15 29.8 1009 10 16.0934 0 0
6:53 pm 18:53 Sunny 84 28.9 43 6.1 24 24 ESE 6 9 29.79 1009 10 16.0934 0 0
7:53 pm 19:53 Clear 83 28.3 43 6.1 24 24 ESE 9 15 29.8 1009 10 16.0934 0 0
8:53 pm 20:53 Clear 81 27.2 41 5 24 24 ESE 8 13 29.81 1009 10 16.0934 0 0
9:53 pm 21:53 Clear 79 26.1 40 4.4 25 25 E 7 11 29.81 1010 10 16.0934 0 0
10:53 pm 22:53 Clear 77 25 43 6.1 30 30 N 6 9 29.82 1010 10 16.0934 0 0
11:53 pm 23:53 Clear 76 24.4 45 7.2 33 33 SSW 5 7 29.83 1010 10 16.0934 0 0

Powered by AerisWeather